Year,Month,Day,Hour,Minute,Value (Times are PST for temperature in C)
2014,08,19,00,00,17.70
2014,08,19,00,01,17.70
2014,08,19,00,02,17.70
2014,08,19,00,03,17.70
2014,08,19,00,04,17.70
2014,08,19,00,05,17.70
2014,08,19,00,06,17.70
2014,08,19,00,07,17.70
2014,08,19,00,08,17.70
2014,08,19,00,09,17.70
2014,08,19,00,10,17.70
2014,08,19,00,11,17.70
2014,08,19,00,12,17.70
2014,08,19,00,13,17.70
2014,08,19,00,14,17.70
2014,08,19,00,15,17.70
2014,08,19,00,16,17.70
2014,08,19,00,17,17.70
2014,08,19,00,18,17.70
2014,08,19,00,19,17.70
2014,08,19,00,20,17.70
2014,08,19,00,21,17.70
2014,08,19,00,22,17.70
2014,08,19,00,23,17.70
2014,08,19,00,24,17.70
2014,08,19,00,25,17.70
2014,08,19,00,26,17.70
2014,08,19,00,27,17.70
2014,08,19,00,28,17.70
2014,08,19,00,29,17.70
2014,08,19,00,30,17.60
2014,08,19,00,31,17.60
2014,08,19,00,32,17.60
2014,08,19,00,33,17.60
2014,08,19,00,34,17.60
2014,08,19,00,35,17.60
2014,08,19,00,36,17.60
2014,08,19,00,37,17.60
2014,08,19,00,38,17.60
2014,08,19,00,39,17.60
2014,08,19,00,40,17.60
2014,08,19,00,41,17.60
2014,08,19,00,42,17.60
2014,08,19,00,43,17.60
2014,08,19,00,44,17.60
2014,08,19,00,45,17.60
2014,08,19,00,46,17.60
2014,08,19,00,47,17.60
2014,08,19,00,48,17.60
2014,08,19,00,49,17.60
2014,08,19,00,50,17.60
2014,08,19,00,51,17.60
2014,08,19,00,52,17.60
2014,08,19,00,53,17.60
2014,08,19,00,54,17.60
2014,08,19,00,55,17.60
2014,08,19,00,56,17.60
2014,08,19,00,57,17.60
2014,08,19,00,58,17.60
2014,08,19,00,59,17.60
2014,08,19,01,00,17.60
2014,08,19,01,01,17.60
2014,08,19,01,02,17.60
2014,08,19,01,03,17.60
2014,08,19,01,04,17.70
2014,08,19,01,05,17.70
2014,08,19,01,06,17.70
2014,08,19,01,07,17.70
2014,08,19,01,08,17.70
2014,08,19,01,09,17.70
2014,08,19,01,10,17.70
2014,08,19,01,11,17.70
2014,08,19,01,12,17.70
2014,08,19,01,13,17.70
2014,08,19,01,14,17.70
2014,08,19,01,15,17.70
2014,08,19,01,16,17.70
2014,08,19,01,17,17.70
2014,08,19,01,18,17.70
2014,08,19,01,19,17.70
2014,08,19,01,20,17.70
2014,08,19,01,21,17.60
2014,08,19,01,22,17.60
2014,08,19,01,23,17.60
2014,08,19,01,24,17.60
2014,08,19,01,25,17.60
2014,08,19,01,26,17.60
2014,08,19,01,27,17.60
2014,08,19,01,28,17.60
2014,08,19,01,29,17.60
2014,08,19,01,30,17.60
2014,08,19,01,31,17.60
2014,08,19,01,32,17.60
2014,08,19,01,33,17.60
2014,08,19,01,34,17.60
2014,08,19,01,35,17.50
2014,08,19,01,36,17.50
2014,08,19,01,37,17.50
2014,08,19,01,38,17.50
2014,08,19,01,39,17.50
2014,08,19,01,40,17.50
2014,08,19,01,41,17.50
2014,08,19,01,42,17.50
2014,08,19,01,43,17.40
2014,08,19,01,44,17.40
2014,08,19,01,45,17.40
2014,08,19,01,46,17.40
2014,08,19,01,47,17.40
2014,08,19,01,48,17.40
2014,08,19,01,49,17.40
2014,08,19,01,50,17.40
2014,08,19,01,51,17.40
2014,08,19,01,52,17.40
2014,08,19,01,53,17.40
2014,08,19,01,54,17.40
2014,08,19,01,55,17.40
2014,08,19,01,56,17.40
2014,08,19,01,57,17.40
2014,08,19,01,58,17.40
2014,08,19,01,59,17.40
2014,08,19,02,00,17.40
2014,08,19,02,01,17.40
2014,08,19,02,02,17.40
2014,08,19,02,03,17.40
2014,08,19,02,04,17.40
2014,08,19,02,05,17.40
2014,08,19,02,06,17.40
2014,08,19,02,07,17.40
2014,08,19,02,08,17.30
2014,08,19,02,09,17.30
2014,08,19,02,10,17.30
2014,08,19,02,11,17.30
2014,08,19,02,12,17.30
2014,08,19,02,13,17.30
2014,08,19,02,14,17.30
2014,08,19,02,15,17.30
2014,08,19,02,16,17.30
2014,08,19,02,17,17.30
2014,08,19,02,18,17.30
2014,08,19,02,19,17.30
2014,08,19,02,20,17.30
2014,08,19,02,21,17.30
2014,08,19,02,22,17.30
2014,08,19,02,23,17.30
2014,08,19,02,24,17.30
2014,08,19,02,25,17.30
2014,08,19,02,26,17.30
2014,08,19,02,27,17.20
2014,08,19,02,28,17.20
2014,08,19,02,29,17.20
2014,08,19,02,30,17.20
2014,08,19,02,31,17.20
2014,08,19,02,32,17.20
2014,08,19,02,33,17.20
2014,08,19,02,34,17.20
2014,08,19,02,35,17.20
2014,08,19,02,36,17.20
2014,08,19,02,37,17.20
2014,08,19,02,38,17.20
2014,08,19,02,39,17.20
2014,08,19,02,40,17.20
2014,08,19,02,41,17.20
2014,08,19,02,42,17.10
2014,08,19,02,43,17.10
2014,08,19,02,44,17.10
2014,08,19,02,45,17.10
2014,08,19,02,46,17.10
2014,08,19,02,47,17.10
2014,08,19,02,48,17.10
2014,08,19,02,49,17.10
2014,08,19,02,50,17.10
2014,08,19,02,51,17.10
2014,08,19,02,52,17.10
2014,08,19,02,53,17.10
2014,08,19,02,54,17.10
2014,08,19,02,55,17.10
2014,08,19,02,56,17.10
2014,08,19,02,57,17.10
2014,08,19,02,58,17.10
2014,08,19,02,59,17.10
2014,08,19,03,00,17.10
2014,08,19,03,01,17.10
2014,08,19,03,02,17.10
2014,08,19,03,03,17.10
2014,08,19,03,04,17.10
2014,08,19,03,05,17.10
2014,08,19,03,06,17.10
2014,08,19,03,07,17.10
2014,08,19,03,08,17.00
2014,08,19,03,09,17.10
2014,08,19,03,10,17.00
2014,08,19,03,11,17.10
2014,08,19,03,12,17.10
2014,08,19,03,13,17.00
2014,08,19,03,14,17.00
2014,08,19,03,15,17.00
2014,08,19,03,16,17.00
2014,08,19,03,17,17.00
2014,08,19,03,18,17.00
2014,08,19,03,19,17.00
2014,08,19,03,20,17.00
2014,08,19,03,21,17.00
2014,08,19,03,22,17.00
2014,08,19,03,23,17.00
2014,08,19,03,24,17.00
2014,08,19,03,25,17.00
2014,08,19,03,26,17.00
2014,08,19,03,27,17.00
2014,08,19,03,28,17.00
2014,08,19,03,29,17.00
2014,08,19,03,30,17.00
2014,08,19,03,31,17.00
2014,08,19,03,32,17.00
2014,08,19,03,33,17.00
2014,08,19,03,34,17.10
2014,08,19,03,35,17.10
2014,08,19,03,36,17.10
2014,08,19,03,37,17.10
2014,08,19,03,38,17.00
2014,08,19,03,39,17.00
2014,08,19,03,40,17.00
2014,08,19,03,41,17.00
2014,08,19,03,42,17.00
2014,08,19,03,43,17.00
2014,08,19,03,44,17.00
2014,08,19,03,45,17.00
2014,08,19,03,46,17.00
2014,08,19,03,47,17.00
2014,08,19,03,48,17.00
2014,08,19,03,49,17.00
2014,08,19,03,50,16.90
2014,08,19,03,51,16.90
2014,08,19,03,52,16.90
2014,08,19,03,53,16.90
2014,08,19,03,54,16.90
2014,08,19,03,55,16.90
2014,08,19,03,56,16.90
2014,08,19,03,57,16.90
2014,08,19,03,58,16.90
2014,08,19,03,59,16.90
2014,08,19,04,00,16.80
2014,08,19,04,01,16.80
2014,08,19,04,02,16.80
2014,08,19,04,03,16.80
2014,08,19,04,04,16.80
2014,08,19,04,05,16.80
2014,08,19,04,06,16.80
2014,08,19,04,07,16.80
2014,08,19,04,08,16.80
2014,08,19,04,09,16.80
2014,08,19,04,10,16.80
2014,08,19,04,11,16.80
2014,08,19,04,12,16.80
2014,08,19,04,13,16.80
2014,08,19,04,14,16.70
2014,08,19,04,15,16.70
2014,08,19,04,16,16.70
2014,08,19,04,17,16.70
2014,08,19,04,18,16.70
2014,08,19,04,19,16.70
2014,08,19,04,20,16.70
2014,08,19,04,21,16.70
2014,08,19,04,22,16.60
2014,08,19,04,23,16.60
2014,08,19,04,24,16.60
2014,08,19,04,25,16.60
2014,08,19,04,26,16.60
2014,08,19,04,27,16.60
2014,08,19,04,28,16.60
2014,08,19,04,29,16.60
2014,08,19,04,30,16.60
2014,08,19,04,31,16.50
2014,08,19,04,32,16.50
2014,08,19,04,33,16.50
2014,08,19,04,34,16.50
2014,08,19,04,35,16.50
2014,08,19,04,36,16.40
2014,08,19,04,37,16.40
2014,08,19,04,38,16.40
2014,08,19,04,39,16.40
2014,08,19,04,40,16.40
2014,08,19,04,41,16.40
2014,08,19,04,42,16.40
2014,08,19,04,43,16.40
2014,08,19,04,44,16.30
2014,08,19,04,45,16.30
2014,08,19,04,46,16.30
2014,08,19,04,47,16.30
2014,08,19,04,48,16.30
2014,08,19,04,49,16.30
2014,08,19,04,50,16.30
2014,08,19,04,51,16.30
2014,08,19,04,52,16.30
2014,08,19,04,53,16.30
2014,08,19,04,54,16.30
2014,08,19,04,55,16.20
2014,08,19,04,56,16.20
2014,08,19,04,57,16.20
2014,08,19,04,58,16.20
2014,08,19,04,59,16.20
2014,08,19,05,00,16.20
2014,08,19,05,01,16.20
2014,08,19,05,02,16.20
2014,08,19,05,03,16.10
2014,08,19,05,04,16.10
2014,08,19,05,05,16.10
2014,08,19,05,06,16.10
2014,08,19,05,07,16.10
2014,08,19,05,08,16.10
2014,08,19,05,09,16.10
2014,08,19,05,10,16.10
2014,08,19,05,11,16.10
2014,08,19,05,12,16.10
2014,08,19,05,13,16.10
2014,08,19,05,14,16.00
2014,08,19,05,15,16.00
2014,08,19,05,16,16.00
2014,08,19,05,17,16.00
2014,08,19,05,18,15.90
2014,08,19,05,19,15.90
2014,08,19,05,20,15.90
2014,08,19,05,21,15.90
2014,08,19,05,22,15.90
2014,08,19,05,23,15.90
2014,08,19,05,24,15.90
2014,08,19,05,25,15.80
2014,08,19,05,26,15.80
2014,08,19,05,27,15.80
2014,08,19,05,28,15.80
2014,08,19,05,29,15.80
2014,08,19,05,30,15.80
2014,08,19,05,31,15.80
2014,08,19,05,32,15.80
2014,08,19,05,33,15.80
2014,08,19,05,34,15.80
2014,08,19,05,35,15.70
2014,08,19,05,36,15.70
2014,08,19,05,37,15.70
2014,08,19,05,38,15.70
2014,08,19,05,39,15.70
2014,08,19,05,40,15.70
2014,08,19,05,41,15.70
2014,08,19,05,42,15.70
2014,08,19,05,43,15.70
2014,08,19,05,44,15.70
2014,08,19,05,45,15.70
2014,08,19,05,46,15.60
2014,08,19,05,47,15.60
2014,08,19,05,48,15.60
2014,08,19,05,49,15.60
2014,08,19,05,50,15.60
2014,08,19,05,51,15.60
2014,08,19,05,52,15.60
2014,08,19,05,53,15.60
2014,08,19,05,54,15.60
2014,08,19,05,55,15.60
2014,08,19,05,56,15.60
2014,08,19,05,57,15.60
2014,08,19,05,58,15.60
2014,08,19,05,59,15.60
2014,08,19,06,00,15.60
2014,08,19,06,01,15.50
2014,08,19,06,02,15.50
2014,08,19,06,03,15.50
2014,08,19,06,04,15.50
2014,08,19,06,05,15.50
2014,08,19,06,06,15.50
2014,08,19,06,07,15.50
2014,08,19,06,08,15.50
2014,08,19,06,09,15.50
2014,08,19,06,10,15.50
2014,08,19,06,11,15.50
2014,08,19,06,12,15.50
2014,08,19,06,13,15.50
2014,08,19,06,14,15.50
2014,08,19,06,15,15.50
2014,08,19,06,16,15.50
2014,08,19,06,17,15.50
2014,08,19,06,18,15.50
2014,08,19,06,19,15.50
2014,08,19,06,20,15.50
2014,08,19,06,21,15.50
2014,08,19,06,22,15.50
2014,08,19,06,23,15.50
2014,08,19,06,24,15.50
2014,08,19,06,25,15.40
2014,08,19,06,26,15.40
2014,08,19,06,27,15.40
2014,08,19,06,28,15.40
2014,08,19,06,29,15.40
2014,08,19,06,30,15.40
2014,08,19,06,31,15.40
2014,08,19,06,32,15.40
2014,08,19,06,33,15.40
2014,08,19,06,34,15.40
2014,08,19,06,35,15.40
2014,08,19,06,36,15.40
2014,08,19,06,37,15.40
2014,08,19,06,38,15.30
2014,08,19,06,39,15.30
2014,08,19,06,40,15.30
2014,08,19,06,41,15.20
2014,08,19,06,42,15.20
2014,08,19,06,43,15.10
2014,08,19,06,44,15.10
2014,08,19,06,45,15.00
2014,08,19,06,46,15.00
2014,08,19,06,47,14.90
2014,08,19,06,48,14.90
2014,08,19,06,49,14.90
2014,08,19,06,50,14.90
2014,08,19,06,51,14.80
2014,08,19,06,52,14.80
2014,08,19,06,53,14.80
2014,08,19,06,54,14.80
2014,08,19,06,55,14.80
2014,08,19,06,56,14.80
2014,08,19,06,57,14.80
2014,08,19,06,58,14.80
2014,08,19,06,59,14.70
2014,08,19,07,00,14.70
2014,08,19,07,01,14.70
2014,08,19,07,02,14.70
2014,08,19,07,03,14.70
2014,08,19,07,04,14.70
2014,08,19,07,05,14.70
2014,08,19,07,06,14.70
2014,08,19,07,07,14.70
2014,08,19,07,08,14.70
2014,08,19,07,09,14.70
2014,08,19,07,10,14.60
2014,08,19,07,11,14.70
2014,08,19,07,12,14.60
2014,08,19,07,13,14.60
2014,08,19,07,14,14.70
2014,08,19,07,15,14.60
2014,08,19,07,16,14.60
2014,08,19,07,17,14.60
2014,08,19,07,18,14.70
2014,08,19,07,19,14.70
2014,08,19,07,20,14.70
2014,08,19,07,21,14.70
2014,08,19,07,22,14.70
2014,08,19,07,23,14.70
2014,08,19,07,24,14.70
2014,08,19,07,25,14.70
2014,08,19,07,26,14.70
2014,08,19,07,27,14.70
2014,08,19,07,28,14.70
2014,08,19,07,29,14.70
2014,08,19,07,30,14.70
2014,08,19,07,31,14.80
2014,08,19,07,32,14.80
2014,08,19,07,33,14.80
2014,08,19,07,34,14.80
2014,08,19,07,35,14.80
2014,08,19,07,36,14.80
2014,08,19,07,37,14.80
2014,08,19,07,38,14.90
2014,08,19,07,39,14.90
2014,08,19,07,40,14.90
2014,08,19,07,41,14.90
2014,08,19,07,42,15.00
2014,08,19,07,43,15.00
2014,08,19,07,44,15.00
2014,08,19,07,45,15.10
2014,08,19,07,46,15.10
2014,08,19,07,47,15.20
2014,08,19,07,48,15.20
2014,08,19,07,49,15.30
2014,08,19,07,50,15.30
2014,08,19,07,51,15.30
2014,08,19,07,52,15.40
2014,08,19,07,53,15.40
2014,08,19,07,54,15.50
2014,08,19,07,55,15.50
2014,08,19,07,56,15.60
2014,08,19,07,57,15.60
2014,08,19,07,58,15.60
2014,08,19,07,59,15.70
2014,08,19,08,00,15.70
2014,08,19,08,01,15.70
2014,08,19,08,02,15.70
2014,08,19,08,03,15.80
2014,08,19,08,04,15.80
2014,08,19,08,05,15.80
2014,08,19,08,06,15.80
2014,08,19,08,07,15.90
2014,08,19,08,08,15.90
2014,08,19,08,09,15.90
2014,08,19,08,10,16.00
2014,08,19,08,11,16.00
2014,08,19,08,12,16.10
2014,08,19,08,13,16.10
2014,08,19,08,14,16.10
2014,08,19,08,15,16.20
2014,08,19,08,16,16.20
2014,08,19,08,17,16.20
2014,08,19,08,18,16.30
2014,08,19,08,19,16.30
2014,08,19,08,20,16.40
2014,08,19,08,21,16.40
2014,08,19,08,22,16.50
2014,08,19,08,23,16.50
2014,08,19,08,24,16.60
2014,08,19,08,25,16.70
2014,08,19,08,26,16.70
2014,08,19,08,27,16.80
2014,08,19,08,28,16.80
2014,08,19,08,29,16.90
2014,08,19,08,30,16.90
2014,08,19,08,31,17.00
2014,08,19,08,32,17.00
2014,08,19,08,33,17.10
2014,08,19,08,34,17.10
2014,08,19,08,35,17.20
2014,08,19,08,36,17.20
2014,08,19,08,37,17.30
2014,08,19,08,38,17.30
2014,08,19,08,39,17.30
2014,08,19,08,40,17.40
2014,08,19,08,41,17.40
2014,08,19,08,42,17.50
2014,08,19,08,43,17.50
2014,08,19,08,44,17.60
2014,08,19,08,45,17.60
2014,08,19,08,46,17.60
2014,08,19,08,47,17.70
2014,08,19,08,48,17.70
2014,08,19,08,49,17.70
2014,08,19,08,50,17.70
2014,08,19,08,51,17.80
2014,08,19,08,52,17.80
2014,08,19,08,53,17.80
2014,08,19,08,54,17.80
2014,08,19,08,55,17.90
2014,08,19,08,56,17.90
2014,08,19,08,57,17.90
2014,08,19,08,58,17.90
2014,08,19,08,59,17.90
2014,08,19,09,00,18.00
2014,08,19,09,01,18.00
2014,08,19,09,02,18.10
2014,08,19,09,03,18.10
2014,08,19,09,04,18.10
2014,08,19,09,05,18.10
2014,08,19,09,06,18.20
2014,08,19,09,07,18.20
2014,08,19,09,08,18.20
2014,08,19,09,09,18.20
2014,08,19,09,10,18.30
2014,08,19,09,11,18.30
2014,08,19,09,12,18.30
2014,08,19,09,13,18.40
2014,08,19,09,14,18.40
2014,08,19,09,15,18.40
2014,08,19,09,16,18.40
2014,08,19,09,17,18.50
2014,08,19,09,18,18.50
2014,08,19,09,19,18.60
2014,08,19,09,20,18.60
2014,08,19,09,21,18.70
2014,08,19,09,22,18.70
2014,08,19,09,23,18.80
2014,08,19,09,24,18.80
2014,08,19,09,25,18.80
2014,08,19,09,26,18.90
2014,08,19,09,27,19.00
2014,08,19,09,28,19.00
2014,08,19,09,29,19.10
2014,08,19,09,30,19.20
2014,08,19,09,31,19.30
2014,08,19,09,32,19.50
2014,08,19,09,33,19.60
2014,08,19,09,34,19.70
2014,08,19,09,35,19.80
2014,08,19,09,36,19.80
2014,08,19,09,37,19.90
2014,08,19,09,38,20.00
2014,08,19,09,39,20.10
2014,08,19,09,40,20.10
2014,08,19,09,41,20.20
2014,08,19,09,42,20.20
2014,08,19,09,43,20.20
2014,08,19,09,44,20.30
2014,08,19,09,45,20.30
2014,08,19,09,46,20.40
2014,08,19,09,47,20.40
2014,08,19,09,48,20.50
2014,08,19,09,49,20.50
2014,08,19,09,50,20.50
2014,08,19,09,51,20.50
2014,08,19,09,52,20.50
2014,08,19,09,53,20.40
2014,08,19,09,54,20.40
2014,08,19,09,55,20.40
2014,08,19,09,56,20.50
2014,08,19,09,57,20.50
2014,08,19,09,58,20.50
2014,08,19,09,59,20.60
2014,08,19,10,00,20.60
2014,08,19,10,01,20.70
2014,08,19,10,02,20.80
2014,08,19,10,03,20.80
2014,08,19,10,04,20.90
2014,08,19,10,05,21.00
2014,08,19,10,06,21.10
2014,08,19,10,07,21.20
2014,08,19,10,08,21.20
2014,08,19,10,09,21.30
2014,08,19,10,10,21.40
2014,08,19,10,11,21.40
2014,08,19,10,12,21.50
2014,08,19,10,13,21.50
2014,08,19,10,14,21.60
2014,08,19,10,15,21.60
2014,08,19,10,16,21.70
2014,08,19,10,17,21.70
2014,08,19,10,18,21.70
2014,08,19,10,19,21.80
2014,08,19,10,20,21.80
2014,08,19,10,21,21.80
2014,08,19,10,22,21.80
2014,08,19,10,23,21.90
2014,08,19,10,24,22.00
2014,08,19,10,25,22.00
2014,08,19,10,26,22.00
2014,08,19,10,27,22.10
2014,08,19,10,28,22.10
2014,08,19,10,29,22.20
2014,08,19,10,30,22.20
2014,08,19,10,31,22.30
2014,08,19,10,32,22.30
2014,08,19,10,33,22.40
2014,08,19,10,34,22.40
2014,08,19,10,35,22.50
2014,08,19,10,36,22.60
2014,08,19,10,37,22.70
2014,08,19,10,38,22.80
2014,08,19,10,39,22.80
2014,08,19,10,40,22.90
2014,08,19,10,41,22.90
2014,08,19,10,42,23.00
2014,08,19,10,43,23.00
2014,08,19,10,44,23.00
2014,08,19,10,45,23.00
2014,08,19,10,46,23.10
2014,08,19,10,47,23.10
2014,08,19,10,48,23.10
2014,08,19,10,49,23.10
2014,08,19,10,50,23.10
2014,08,19,10,51,23.10
2014,08,19,10,52,23.20
2014,08,19,10,53,23.20
2014,08,19,10,54,23.10
2014,08,19,10,55,23.10
2014,08,19,10,56,23.10
2014,08,19,10,57,23.10
2014,08,19,10,58,23.10
2014,08,19,10,59,23.10
2014,08,19,11,00,23.10
2014,08,19,11,01,23.10
2014,08,19,11,02,23.00
2014,08,19,11,03,23.00
2014,08,19,11,04,23.00
2014,08,19,11,05,23.00
2014,08,19,11,06,23.00
2014,08,19,11,07,23.00
2014,08,19,11,08,23.00
2014,08,19,11,09,23.00
2014,08,19,11,10,23.00
2014,08,19,11,11,22.90
2014,08,19,11,12,22.90
2014,08,19,11,13,22.90
2014,08,19,11,14,22.90
2014,08,19,11,15,22.90
2014,08,19,11,16,22.80
2014,08,19,11,17,22.80
2014,08,19,11,18,22.70
2014,08,19,11,19,22.60
2014,08,19,11,20,22.50
2014,08,19,11,21,22.50
2014,08,19,11,22,22.50
2014,08,19,11,23,22.50
2014,08,19,11,24,22.50
2014,08,19,11,25,22.50
2014,08,19,11,26,22.50
2014,08,19,11,27,22.40
2014,08,19,11,28,22.40
2014,08,19,11,29,22.30
2014,08,19,11,30,22.30
2014,08,19,11,31,22.30
2014,08,19,11,32,22.30
2014,08,19,11,33,22.30
2014,08,19,11,34,22.30
2014,08,19,11,35,22.20
2014,08,19,11,36,22.10
2014,08,19,11,37,22.00
2014,08,19,11,38,21.90
2014,08,19,11,39,21.80
2014,08,19,11,40,21.70
2014,08,19,11,41,21.60
2014,08,19,11,42,21.60
2014,08,19,11,43,21.50
2014,08,19,11,44,21.50
2014,08,19,11,45,21.50
2014,08,19,11,46,21.50
2014,08,19,11,47,21.60
2014,08,19,11,48,21.60
2014,08,19,11,49,21.70
2014,08,19,11,50,21.70
2014,08,19,11,51,21.80
2014,08,19,11,52,21.80
2014,08,19,11,53,21.90
2014,08,19,11,54,22.00
2014,08,19,11,55,22.00
2014,08,19,11,56,22.10
2014,08,19,11,57,22.20
2014,08,19,11,58,22.20
2014,08,19,11,59,22.30
2014,08,19,12,00,22.30
2014,08,19,12,01,22.30
2014,08,19,12,02,22.40
2014,08,19,12,03,22.40
2014,08,19,12,04,22.50
2014,08,19,12,05,22.50
2014,08,19,12,06,22.50
2014,08,19,12,07,22.50
2014,08,19,12,08,22.50
2014,08,19,12,09,22.50
2014,08,19,12,10,22.60
2014,08,19,12,11,22.60
2014,08,19,12,12,22.70
2014,08,19,12,13,22.70
2014,08,19,12,14,22.80
2014,08,19,12,15,22.80
2014,08,19,12,16,22.90
2014,08,19,12,17,22.90
2014,08,19,12,18,22.90
2014,08,19,12,19,22.90
2014,08,19,12,20,22.90
2014,08,19,12,21,22.90
2014,08,19,12,22,22.90
2014,08,19,12,23,23.00
2014,08,19,12,24,23.10
2014,08,19,12,25,23.10
2014,08,19,12,26,23.20
2014,08,19,12,27,23.20
2014,08,19,12,28,23.20
2014,08,19,12,29,23.30
2014,08,19,12,30,23.30
2014,08,19,12,31,23.40
2014,08,19,12,32,23.40
2014,08,19,12,33,23.40
2014,08,19,12,34,23.50
2014,08,19,12,35,23.60
2014,08,19,12,36,23.60
2014,08,19,12,37,23.70
2014,08,19,12,38,23.80
2014,08,19,12,39,23.80
2014,08,19,12,40,23.90
2014,08,19,12,41,23.90
2014,08,19,12,42,24.00
2014,08,19,12,43,24.10
2014,08,19,12,44,24.10
2014,08,19,12,45,24.10
2014,08,19,12,46,24.10
2014,08,19,12,47,24.10
2014,08,19,12,48,24.10
2014,08,19,12,49,24.10
2014,08,19,12,50,24.20
2014,08,19,12,51,24.20
2014,08,19,12,52,24.20
2014,08,19,12,53,24.20
2014,08,19,12,54,24.20
2014,08,19,12,55,24.30
2014,08,19,12,56,24.30
2014,08,19,12,57,24.20
2014,08,19,12,58,24.20
2014,08,19,12,59,24.30
2014,08,19,13,00,24.30
2014,08,19,13,01,24.40
2014,08,19,13,02,24.50
2014,08,19,13,03,24.50
2014,08,19,13,04,24.60
2014,08,19,13,05,24.70
2014,08,19,13,06,24.80
2014,08,19,13,07,24.90
2014,08,19,13,08,25.00
2014,08,19,13,09,25.10
2014,08,19,13,10,25.20
2014,08,19,13,11,25.30
2014,08,19,13,12,25.40
2014,08,19,13,13,25.50
2014,08,19,13,14,25.60
2014,08,19,13,15,25.60
2014,08,19,13,16,25.70
2014,08,19,13,17,25.70
2014,08,19,13,18,25.70
2014,08,19,13,19,25.80
2014,08,19,13,20,25.80
2014,08,19,13,21,25.80
2014,08,19,13,22,25.80
2014,08,19,13,23,25.80
2014,08,19,13,24,25.80
2014,08,19,13,25,25.80
2014,08,19,13,26,25.80
2014,08,19,13,27,25.80
2014,08,19,13,28,25.80
2014,08,19,13,29,25.90
2014,08,19,13,30,26.00
2014,08,19,13,31,26.00
2014,08,19,13,32,26.10
2014,08,19,13,33,26.10
2014,08,19,13,34,26.20
2014,08,19,13,35,26.20
2014,08,19,13,36,26.20
2014,08,19,13,37,26.30
2014,08,19,13,38,26.30
2014,08,19,13,39,26.40
2014,08,19,13,40,26.40
2014,08,19,13,41,26.40
2014,08,19,13,42,26.50
2014,08,19,13,43,26.60
2014,08,19,13,44,26.60
2014,08,19,13,45,26.60
2014,08,19,13,46,26.60
2014,08,19,13,47,26.60
2014,08,19,13,48,26.60
2014,08,19,13,49,26.60
2014,08,19,13,50,26.60
2014,08,19,13,51,26.60
2014,08,19,13,52,26.60
2014,08,19,13,53,26.60
2014,08,19,13,54,26.70
2014,08,19,13,55,26.70
2014,08,19,13,56,26.80
2014,08,19,13,57,26.80
2014,08,19,13,58,26.80
2014,08,19,13,59,26.80
2014,08,19,14,00,26.80
2014,08,19,14,01,26.80
2014,08,19,14,02,26.80
2014,08,19,14,03,26.80
2014,08,19,14,04,26.80
2014,08,19,14,05,26.80
2014,08,19,14,06,26.80
2014,08,19,14,07,26.80
2014,08,19,14,08,26.80
2014,08,19,14,09,26.80
2014,08,19,14,10,26.80
2014,08,19,14,11,26.80
2014,08,19,14,12,26.80
2014,08,19,14,13,26.80
2014,08,19,14,14,26.90
2014,08,19,14,15,26.80
2014,08,19,14,16,26.80
2014,08,19,14,17,26.80
2014,08,19,14,18,26.70
2014,08,19,14,19,26.70
2014,08,19,14,20,26.60
2014,08,19,14,21,26.50
2014,08,19,14,22,26.50
2014,08,19,14,23,26.50
2014,08,19,14,24,26.40
2014,08,19,14,25,26.40
2014,08,19,14,26,26.40
2014,08,19,14,27,26.40
2014,08,19,14,28,26.30
2014,08,19,14,29,26.30
2014,08,19,14,30,26.30
2014,08,19,14,31,26.30
2014,08,19,14,32,26.30
2014,08,19,14,33,26.30
2014,08,19,14,34,26.30
2014,08,19,14,35,26.30
2014,08,19,14,36,26.30
2014,08,19,14,37,26.30
2014,08,19,14,38,26.30
2014,08,19,14,39,26.30
2014,08,19,14,40,26.30
2014,08,19,14,41,26.40
2014,08,19,14,42,26.40
2014,08,19,14,43,26.40
2014,08,19,14,44,26.40
2014,08,19,14,45,26.50
2014,08,19,14,46,26.50
2014,08,19,14,47,26.50
2014,08,19,14,48,26.60
2014,08,19,14,49,26.60
2014,08,19,14,50,26.70
2014,08,19,14,51,26.70
2014,08,19,14,52,26.80
2014,08,19,14,53,26.80
2014,08,19,14,54,26.80
2014,08,19,14,55,26.80
2014,08,19,14,56,26.90
2014,08,19,14,57,26.90
2014,08,19,14,58,26.90
2014,08,19,14,59,26.90
2014,08,19,15,00,26.90
2014,08,19,15,01,26.90
2014,08,19,15,02,26.90
2014,08,19,15,03,26.90
2014,08,19,15,04,26.90
2014,08,19,15,05,26.90
2014,08,19,15,06,26.90
2014,08,19,15,07,26.90
2014,08,19,15,08,26.90
2014,08,19,15,09,26.90
2014,08,19,15,10,26.90
2014,08,19,15,11,26.90
2014,08,19,15,12,26.90
2014,08,19,15,13,27.00
2014,08,19,15,14,27.00
2014,08,19,15,15,27.10
2014,08,19,15,16,27.10
2014,08,19,15,17,27.10
2014,08,19,15,18,27.10
2014,08,19,15,19,27.20
2014,08,19,15,20,27.20
2014,08,19,15,21,27.20
2014,08,19,15,22,27.30
2014,08,19,15,23,27.30
2014,08,19,15,24,27.30
2014,08,19,15,25,27.30
2014,08,19,15,26,27.30
2014,08,19,15,27,27.20
2014,08,19,15,28,27.20
2014,08,19,15,29,27.20
2014,08,19,15,30,27.20
2014,08,19,15,31,27.10
2014,08,19,15,32,27.10
2014,08,19,15,33,27.10
2014,08,19,15,34,27.00
2014,08,19,15,35,27.00
2014,08,19,15,36,26.90
2014,08,19,15,37,26.90
2014,08,19,15,38,26.90
2014,08,19,15,39,26.90
2014,08,19,15,40,26.90
2014,08,19,15,41,26.90
2014,08,19,15,42,26.90
2014,08,19,15,43,26.90
2014,08,19,15,44,26.90
2014,08,19,15,45,26.90
2014,08,19,15,46,26.80
2014,08,19,15,47,26.80
2014,08,19,15,48,26.90
2014,08,19,15,49,26.90
2014,08,19,15,50,27.00
2014,08,19,15,51,27.10
2014,08,19,15,52,27.20
2014,08,19,15,53,27.20
2014,08,19,15,54,27.20
2014,08,19,15,55,27.20
2014,08,19,15,56,27.20
2014,08,19,15,57,27.20
2014,08,19,15,58,27.20
2014,08,19,15,59,27.20
2014,08,19,16,00,27.20
2014,08,19,16,01,27.10
2014,08,19,16,02,27.10
2014,08,19,16,03,27.10
2014,08,19,16,04,27.10
2014,08,19,16,05,27.10
2014,08,19,16,06,27.10
2014,08,19,16,07,27.00
2014,08,19,16,08,27.00
2014,08,19,16,09,26.90
2014,08,19,16,10,26.90
2014,08,19,16,11,26.90
2014,08,19,16,12,26.90
2014,08,19,16,13,27.00
2014,08,19,16,14,27.00
2014,08,19,16,15,27.10
2014,08,19,16,16,27.10
2014,08,19,16,17,27.10
2014,08,19,16,18,27.10
2014,08,19,16,19,27.10
2014,08,19,16,20,27.10
2014,08,19,16,21,27.00
2014,08,19,16,22,27.00
2014,08,19,16,23,27.00
2014,08,19,16,24,27.10
2014,08,19,16,25,27.10
2014,08,19,16,26,27.10
2014,08,19,16,27,27.20
2014,08,19,16,28,27.20
2014,08,19,16,29,27.20
2014,08,19,16,30,27.20
2014,08,19,16,31,27.20
2014,08,19,16,32,27.20
2014,08,19,16,33,27.20
2014,08,19,16,34,27.10
2014,08,19,16,35,27.10
2014,08,19,16,36,27.10
2014,08,19,16,37,27.10
2014,08,19,16,38,27.00
2014,08,19,16,39,27.00
2014,08,19,16,40,26.90
2014,08,19,16,41,26.90
2014,08,19,16,42,26.90
2014,08,19,16,43,26.80
2014,08,19,16,44,26.80
2014,08,19,16,45,26.80
2014,08,19,16,46,26.80
2014,08,19,16,47,26.80
2014,08,19,16,48,26.80
2014,08,19,16,49,26.70
2014,08,19,16,50,26.70
2014,08,19,16,51,26.70
2014,08,19,16,52,26.70
2014,08,19,16,53,26.70
2014,08,19,16,54,26.70
2014,08,19,16,55,26.60
2014,08,19,16,56,26.60
2014,08,19,16,57,26.50
2014,08,19,16,58,26.40
2014,08,19,16,59,26.40
2014,08,19,17,00,26.40
2014,08,19,17,01,26.50
2014,08,19,17,02,26.50
2014,08,19,17,03,26.60
2014,08,19,17,04,26.60
2014,08,19,17,05,26.70
2014,08,19,17,06,26.70
2014,08,19,17,07,26.70
2014,08,19,17,08,26.70
2014,08,19,17,09,26.70
2014,08,19,17,10,26.60
2014,08,19,17,11,26.50
2014,08,19,17,12,26.40
2014,08,19,17,13,26.40
2014,08,19,17,14,26.30
2014,08,19,17,15,26.30
2014,08,19,17,16,26.20
2014,08,19,17,17,26.20
2014,08,19,17,18,26.20
2014,08,19,17,19,26.10